RH
70 73 76 76 79 82 80 78 76 77 82 83 83 83 82 81 80 88 85 84 86 93 72 51 50 67 91 83 89 89 80 71 95 100 90 70 71 46 45 36 58 74 91 91 83 93 78 41 68 93 83 61 51 59
77 78 80 81 82 83 85 86 86 87 86 84 84 84 85 84 83 84 94 83 86 91 80 62 55 53 52 43 63 69 64 72 81 78 76 63 70 65 47 54 28 47 38 48 62 65 42 41 66 66 62 57 45 69
81 83 83 83 84 84 85 85 84 83 85 88 89 88 87 87 86 88 97 95 95 99 100 90 79 71 56 52 48 76 61 51 63 67 93 82 79 49 70 52 43 31 31 48 55 36 50 60 68 63 47 41 54 52
82 82 84 86 87 87 86 84 84 85 86 84 84 84 90 90 90 90 98 96 97 99 99 86 64 66 52 55 50 52 53 48 55 72 99 98 86 65 56 50 51 35 34 38 40 35 34 34 38 36 33 46 55 59
82 85 89 91 91 92 92 89 88 86 87 87 88 86 82 80 87 93 96 96 93 79 97 72 65 62 55 56 60 55 60 66 80 93 100 93 65 65 60 60 57 38 39 43 46 34 36 35 31 34 37 44 53 64
90 92 94 95 93 92 94 92 91 89 89 88 87 87 85 82 88 98 100 97 90 88 99 87 54 62 66 64 65 60 61 70 83 99 99 97 67 72 81 59 37 33 32 33 38 32 35 37 36 36 45 51 59 60
92 95 93 90 89 91 92 94 95 94 92 90 89 88 87 86 93 98 95 87 91 94 99 98 71 63 59 68 67 68 66 85 94 99 100 94 62 72 78 75 40 34 32 31 30 32 40 36 37 39 49 54 59 59
95 91 86 87 86 86 89 90 89 88 89 92 90 90 87 86 93 96 85 88 82 96 96 100 81 78 63 72 76 67 78 80 96 99 98 98 84 97 97 50 42 36 34 34 34 33 36 36 36 45 51 60 64 69
94 89 90 91 92 92 94 91 90 88 86 89 89 92 96 98 99 97 88 86 91 84 99 100 91 90 79 67 60 72 66 88 70 94 87 75 77 78 47 40 37 37 40 39 35 40 39 42 50 54 60 64 71 78
94 93 90 89 90 88 93 91 91 89 88 88 96 100 100 98 88 92 98 99 98 94 93 92 68 96 80 95 98 97 86 76 91 73 64 99 70 44 38 38 40 50 50 49 51 51 41 56 62 62 61 63 69 74
91 91 91 93 88 89 92 90 91 89 85 97 100 100 97 81 87 97 100 100 100 100 97 69 67 84 85 96 97 87 99 88 86 67 79 66 59 48 39 44 58 66 63 61 60 60 57 62 64 63 68 70 72 74
93 87 90 95 87 93 93 89 85 87 95 93 94 90 88 95 100 100 99 96 82 70 84 88 77 66 91 88 97 99 97 100 97 81 92 65 78 76 72 74 75 76 75 72 63 63 63 62 60 62 66 72 76 79
92 81 84 90 92 89 81 79 77 78 70 63 78 99 90 98 100 90 89 87 90 81 92 99 99 92 98 93 100 100 100 95 77 99 75 80 86 82 82 80 78 77 84 79 76 67 66 67 67 71 82 81 87 89
86 85 87 88 88 90 90 84 80 75 75 82 98 91 92 95 89 85 81 83 94 96 99 88 98 94 97 100 100 99 98 92 98 93 83 89 82 79 78 82 77 81 89 92 86 83 84 85 88 89 92 91 90 93
87 87 85 86 82 77 76 69 63 54 65 85 79 93 89 87 86 90 92 89 89 92 100 100 99 100 100 100 98 95 99 95 82 88 88 83 80 80 81 83 86 88 91 92 93 94 94 92 91 93 94 94 91 94
79 78 80 90 76 72 71 63 58 56 71 75 80 85 88 88 93 92 93 95 88 91 96 100 100 97 98 99 96 94 92 83 91 85 82 77 82 86 87 87 90 90 90 92 94 93 94 94 93 94 94 94 94 93
77 78 87 88 76 66 70 62 61 74 78 80 89 86 86 89 92 92 91 89 87 95 100 99 99 96 86 91 86 80 89 88 85 82 81 87 88 88 87 88 91 91 91 90 90 89 93 94 92 91 94 94 93 93
81 78 85 79 75 68 66 66 68 69 84 82 85 91 87 89 91 91 90 89 94 90 86 91 75 86 88 82 85 86 82 83 83 84 82 86 88 86 86 88 89 89 90 92 92 91 90 93 90 90 91 90 91 92
84 79 81 76 68 68 70 74 60 78 84 80 83 82 83 87 87 89 91 90 92 89 81 88 90 87 89 86 91 90 88 86 85 90 91 92 93 93 92 90 91 90 90 91 91 86 89 90 89 89 89 87 89 89
79 80 81 76 70 71 81 76 56 65 78 80 76 83 81 90 90 92 92 89 86 88 90 90 90 92 92 90 92 92 89 86 79 84 88 90 91 93 93 89 89 90 88 91 91 91 90 88 88 88 90 89 91 92
75 74 77 74 73 71 81 77 77 70 74 75 78 70 88 80 89 90 89 69 80 90 89 90 92 92 93 93 92 89 89 81 86 83 85 88 90 85 88 89 89 87 87 87 88 92 92 90 88 89 94 95 91 87
72 70 74 73 86 84 79 73 76 77 75 80 82 78 90 92 92 93 76 87 90 91 91 92 91 91 90 91 88 88 89 88 89 84 89 86 87 86 87 88 84 90 89 92 87 91 90 86 88 86 87 89 79 80
60 62 71 72 85 88 100 94 86 88 84 88 78 81 88 90 89 69 90 88 89 89 90 90 92 93 92 92 87 89 91 85 83 85 86 87 86 88 86 89 89 90 89 88 86 88 89 80 82 86 83 82 84 84
53 79 84 84 79 94 78 86 73 76 80 81 76 82 82 86 70 75 87 88 89 85 82 88 82 84 83 81 80 84 88 85 84 85 88 86 85 88 86 87 87 87 85 82 79 82 81 86 80 80 81 81 80 81
79 88 80 83 74 78 84 85 84 77 88 83 80 85 87 77 83 81 82 82 86 89 88 85 81 82 82 85 83 84 90 88 88 84 90 88 87 87 87 86 82 76 76 86 88 87 88 85 84 82 79 79 78 80
93 85 83 86 84 82 82 88 89 89 84 86 88 75 75 78 79 86 75 85 88 85 91 91 90 84 83 83 84 85 88 87 86 86 88 87 89 90 87 83 84 87 75 81 84 86 86 84 83 81 83 80 78 80
89 89 72 55 62 64 82 78 69 79 86 90 84 80 77 85 86 78 70 75 77 84 82 83 81 82 85 86 85 87 87 87 89 86 79 74 77 77 80 83 86 84 74 78 80 80 83 83 82 82 84 82 80 78
76 72 90 89 81 71 87 84 86 88 85 73 70 88 85 82 82 78 78 79 82 78 80 81 81 81 82 85 87 88 89 90 91 84 73 75 77 82 85 85 84 85 82 80 80 78 78 79 80 80 79 84 88 80
89 78 72 92 84 83 88 88 87 78 75 73 84 82 82 77 86 83 81 82 82 82 84 85 88 87 87 86 89 89 90 91 90 91 91 91 85 90 84 85 85 84 83 83 80 78 76 79 79 81 80 84 86 84
87 78 82 86 89 90 91 86 89 90 73 75 68 68 72 83 89 84 84 84 86 91 91 91 91 89 91 90 91 91 90 89 90 85 84 88 91 89 87 86 86 86 84 84 86 88 90 91 92 89 89 89 87 87
79 78 81 80 86 86 86 91 84 80 79 82 80 82 84 87 87 86 87 88 88 89 89 90 90 89 89 90 89 87 92 91 88 85 82 86 87 88 89 89 87 85 84 84 84 85 87 85 84 84 83 84 85 83
86 86 84 87 88 87 90 86 89 88 90 85 90 89 90 86 90 87 90 88 88 89 90 85 86 92 88 88 89 90 86 89 88 88 86 88 90 88 86 85 87 85 84 84 84 84 81 82 84 82 84 82 83 81
89 85 86 87 90 90 91 87 85 88 89 89 92 92 92 88 92 88 84 88 88 87 88 89 89 89 89 88 87 88 84 90 91 93 92 95 94 91 88 86 84 85 85 87 87 86 85 84 85 83 83 83 85 84
Wind_Speed
26 26 26 27 28 28 28 27 27 27 25 25 26 27 27 27 28 18 11 13 13 7 14 17 17 17 6 8 9 4 3 8 5 6 5 4 5 7 10 11 5 8 7 6 7 7 14 6 6 7 11 19 19 16
28 29 29 29 28 28 27 27 26 25 25 24 25 25 27 29 30 27 10 12 12 9 4 13 22 20 20 21 11 8 9 1 5 5 5 3 4 3 9 9 10 12 10 4 7 6 11 10 4 14 17 19 18 8
30 30 29 28 27 26 25 25 26 24 23 23 23 24 25 27 30 28 10 8 11 9 3 12 15 18 19 21 17 10 9 13 7 5 1 3 6 3 6 9 14 10 7 6 5 8 13 1 13 17 15 16 14 15
30 29 28 27 27 28 27 26 24 23 23 24 23 23 22 23 27 25 12 8 11 2 7 6 12 23 20 19 22 20 18 11 14 5 3 4 4 4 5 7 12 9 4 7 9 11 11 11 10 12 16 13 10 13
30 31 31 30 30 29 29 30 28 26 26 25 24 23 22 21 21 13 8 9 11 8 2 7 6 13 16 17 20 21 16 15 7 4 4 5 5 6 8 8 11 12 12 11 11 12 12 12 14 14 17 14 12 9
31 32 29 24 21 18 18 19 24 24 24 24 24 24 23 22 22 6 3 8 12 7 1 3 2 5 11 14 14 19 14 12 9 3 3 3 6 7 5 8 12 11 13 14 14 15 13 13 12 16 10 9 7 9
31 23 15 12 10 11 13 16 18 23 23 24 25 25 24 23 11 4 2 7 16 6 3 3 3 3 7 10 8 8 11 5 4 3 4 4 9 5 7 14 17 16 15 17 19 18 16 16 12 6 4 4 8 11
11 7 4 4 5 7 11 15 17 17 19 24 24 25 24 24 12 3 0 24 14 5 3 3 3 3 6 5 5 5 6 7 5 3 3 4 3 3 7 10 14 16 19 21 21 16 15 14 12 6 3 7 8 9
5 4 7 7 9 9 14 19 18 20 17 24 22 24 14 3 4 3 19 20 1 3 4 4 6 6 5 4 4 5 5 5 4 6 6 6 7 10 8 13 15 15 13 17 16 7 8 10 7 3 3 5 8 10
7 12 3 7 8 9 11 13 22 24 23 24 10 4 5 6 26 22 4 3 2 3 1 4 3 5 6 5 5 4 4 5 4 6 3 5 13 16 16 15 16 10 12 11 13 14 10 5 4 5 6 6 8 11
16 12 7 2 8 10 21 16 28 30 23 4 4 3 10 22 5 2 4 4 4 4 5 6 9 6 5 6 4 5 2 5 5 6 7 6 9 14 16 12 6 5 6 5 7 6 7 6 5 7 9 10 11 12
14 12 15 12 3 11 19 31 32 10 5 7 11 9 5 4 3 5 4 4 5 6 6 5 7 4 4 1 3 4 3 3 5 8 5 5 5 7 5 5 6 7 6 5 6 5 3 3 7 10 12 13 13 13
11 16 20 21 22 23 27 32 33 31 24 8 6 5 3 1 4 7 9 5 5 5 5 4 5 4 3 3 2 4 6 6 4 4 4 5 5 7 8 6 5 6 4 3 4 4 5 7 9 12 15 15 16 14
9 13 21 17 16 13 9 11 6 5 4 5 3 7 3 4 3 2 3 4 4 0 6 7 4 3 3 5 2 5 2 3 5 4 2 3 7 9 7 6 5 5 5 6 6 7 9 10 12 12 13 14 16 16
8 8 13 16 15 12 13 13 10 5 6 6 5 6 4 3 3 3 2 2 3 3 1 4 3 2 3 3 4 2 4 4 1 3 3 6 8 8 7 6 4 5 6 7 8 9 10 12 13 14 12 13 15 17
3 6 7 12 10 7 6 7 6 4 6 5 8 4 3 3 4 3 4 3 5 4 2 2 3 3 3 0 3 1 4 2 4 4 5 7 7 6 5 5 6 7 8 10 9 11 12 12 14 16 16 15 15 17
6 3 14 11 5 12 15 6 5 9 6 6 5 5 4 4 4 4 4 5 5 4 0 1 2 3 1 3 3 4 4 4 5 5 4 6 7 6 5 6 7 8 9 11 12 14 16 15 15 17 18 15 15 16
3 4 8 5 2 5 5 7 6 6 8 6 5 6 6 5 5 5 6 6 4 2 2 4 3 4 5 4 3 4 3 3 4 5 6 6 5 5 4 7 8 9 11 12 13 15 16 15 16 13 17 18 16 16
6 6 9 6 4 5 5 6 5 7 6 3 3 4 3 3 6 7 6 7 5 6 4 4 6 4 4 4 6 4 3 3 2 3 5 8 7 7 8 10 10 11 12 12 12 10 11 13 12 10 10 11 11 11
3 15 11 8 3 5 6 5 3 6 4 4 3 7 4 4 5 6 9 8 8 5 7 6 5 5 4 6 7 4 3 2 2 3 4 5 6 8 8 8 8 12 12 13 12 12 11 11 10 10 9 10 11 11
3 6 8 4 5 7 6 3 5 4 5 4 4 4 5 7 9 6 7 7 7 7 5 5 6 5 7 6 6 5 5 3 3 1 3 4 5 6 7 7 8 8 8 8 10 10 10 10 10 9 10 11 10 10
4 7 3 4 5 5 5 6 5 4 3 5 3 4 3 4 5 7 5 8 6 4 5 6 6 6 6 9 8 8 6 6 7 6 7 6 5 5 6 6 7 8 8 8 9 10 9 9 9 11 12 12 12 11
4 5 5 8 6 6 5 1 2 3 3 4 3 4 4 3 4 3 5 5 4 5 7 6 6 5 6 7 8 10 8 6 6 6 6 7 7 7 7 8 6 8 9 9 8 9 10 12 12 12 12 12 12 11
9 8 8 7 8 5 3 4 4 3 4 3 4 4 4 4 3 5 5 3 5 7 8 11 7 4 5 9 8 8 8 5 6 7 6 6 8 8 8 8 8 8 8 8 8 9 9 10 12 10 11 12 11 10
10 11 7 7 6 5 5 4 5 4 5 5 4 4 4 2 4 5 4 4 6 8 8 8 7 7 6 6 6 7 11 7 6 9 8 7 7 8 9 8 9 8 6 8 9 9 9 9 9 10 10 10 12 12
11 10 7 7 5 5 5 4 5 5 4 4 5 3 2 4 5 5 4 6 5 7 8 8 7 5 7 7 6 7 7 6 5 8 8 8 7 6 7 8 7 6 5 5 8 10 10 9 10 12 11 11 12 11
8 7 6 5 3 4 5 5 5 5 5 5 3 3 3 5 5 4 3 5 4 5 5 5 6 6 6 6 7 7 7 8 9 7 6 8 9 9 7 7 8 5 4 6 7 8 10 10 10 10 10 9 8 7
6 6 7 6 6 6 5 5 5 5 4 3 2 5 4 4 4 3 4 4 4 4 4 5 6 6 6 6 6 5 6 5 7 8 9 10 10 9 9 7 8 10 7 6 7 8 8 9 10 10 10 9 7 5
6 3 4 6 5 7 8 6 4 4 4 2 3 3 4 4 3 4 4 4 4 4 4 4 5 4 5 6 6 7 6 6 5 9 10 7 6 7 6 6 6 6 7 8 11 9 10 9 9 9 9 7 6 5
5 3 5 5 6 8 6 5 4 4 3 5 7 10 8 5 6 5 5 5 5 6 5 5 5 5 6 6 6 9 9 8 7 5 5 6 5 3 4 5 6 6 6 7 9 10 12 10 10 7 7 6 5 5
1 3 6 6 6 6 5 2 5 6 6 7 7 8 6 3 3 6 7 5 4 4 4 6 7 7 6 6 6 5 7 8 9 11 8 6 5 5 5 5 5 4 5 6 6 6 6 6 5 6 6 5 5 4
4 5 5 6 5 4 1 0 2 3 2 3 3 2 2 2 4 3 6 5 5 6 6 5 6 6 6 5 6 6 8 5 6 6 8 5 5 5 4 4 4 4 5 5 5 5 5 5 5 4 4 5 4 4
4 4 5 5 4 4 2 2 3 3 3 2 3 2 3 3 4 3 3 5 5 4 5 5 4 5 6 6 6 5 6 6 9 9 9 9 8 6 4 4 4 4 4 4 4 4 4 5 4 4 3 3 4 3
Wind_Direction
282 281 278 277 271 267 264 261 256 250 243 236 230 226 223 217 215 209 217 198 201 233 247 247 245 240 255 228 230 155 251 217 184 225 241 212 240 222 242 256 180 175 192 181 218 240 243 4 46 333 326 317 312 329
280 278 274 270 265 261 258 258 254 247 240 234 229 225 221 219 212 206 219 199 199 218 260 249 244 248 245 245 223 232 247 235 224 254 216 220 210 248 252 249 221 240 227 247 211 212 284 310 335 297 294 290 304 283
280 277 275 272 267 262 256 249 245 239 232 227 223 221 222 220 215 206 197 179 185 217 247 234 236 234 234 235 226 229 230 245 226 238 323 294 256 257 240 243 262 263 242 238 213 229 242 160 276 260 285 320 305 272
282 282 280 275 270 262 256 252 244 235 230 226 221 217 218 219 207 206 195 174 182 152 230 215 224 229 225 226 227 226 237 240 245 226 232 223 234 237 269 290 286 279 253 257 269 280 280 269 235 312 325 329 339 330
286 283 276 269 266 258 248 236 234 232 226 218 216 215 211 207 203 199 191 178 181 194 231 231 196 233 217 223 225 230 234 234 241 234 211 225 250 269 253 275 264 257 258 266 275 287 295 293 305 307 312 325 344 341
286 286 278 274 259 261 232 234 224 223 216 210 206 202 202 195 183 160 141 183 183 205 167 248 282 203 197 211 215 221 225 233 225 211 202 212 255 228 245 258 264 268 270 268 277 285 297 298 300 289 294 353 13 30
288 285 278 283 269 253 236 223 219 214 209 204 198 191 192 183 172 172 194 158 152 127 172 193 239 113 164 179 209 212 223 221 225 188 213 246 254 231 254 253 264 270 274 277 282 285 283 282 292 317 312 76 69 71
293 311 274 274 260 251 235 218 207 203 196 191 184 185 175 167 105 114 89 145 132 108 205 191 186 183 179 162 181 190 196 203 207 213 209 215 224 215 253 241 247 256 263 271 275 279 275 285 283 263 193 136 106 83
17 354 327 329 285 278 264 218 200 185 177 172 170 162 146 75 120 144 134 138 149 194 182 186 182 176 167 194 197 175 187 211 211 221 214 219 222 226 239 244 257 255 267 281 287 295 284 282 297 178 159 166 133 111
347 337 23 17 27 13 343 203 178 166 161 151 103 82 135 168 122 123 67 99 150 225 254 219 186 170 180 169 172 165 205 216 227 220 194 232 246 247 247 255 264 312 297 300 279 274 269 269 224 168 162 155 145 136
360 10 12 60 33 356 6 153 149 146 125 80 131 117 112 133 74 80 152 176 149 188 188 215 201 150 193 178 151 212 181 184 228 174 207 222 246 242 240 255 333 345 320 316 305 302 302 291 215 170 139 132 135 133
1 27 51 87 79 2 51 103 115 110 99 136 108 99 92 108 129 160 140 146 200 200 159 188 190 176 143 181 180 174 237 185 247 147 218 244 71 26 27 22 25 14 360 338 340 328 352 74 141 142 131 124 119 121
4 75 61 49 38 57 84 93 100 101 121 112 75 79 169 120 153 166 166 169 189 176 163 161 139 141 135 213 175 194 222 223 122 219 230 46 28 13 0 358 16 27 23 24 28 55 76 94 115 129 121 122 123 122
19 47 40 37 95 87 60 43 60 77 66 64 69 77 10 98 84 83 55 70 67 32 143 164 126 165 146 178 183 226 216 200 218 236 151 41 1 347 354 2 358 25 51 71 71 90 104 105 103 105 112 118 122 117
61 58 59 26 356 12 74 80 77 55 50 60 31 66 67 82 60 29 4 133 34 324 167 136 123 165 146 191 201 178 195 225 284 32 13 351 344 344 349 358 23 54 65 71 76 88 96 104 105 102 100 108 110 109
347 6 45 11 46 63 129 96 42 74 66 62 44 84 20 108 62 40 24 51 16 344 279 233 137 167 148 212 167 27 262 50 42 352 346 330 345 353 11 48 69 80 90 92 90 92 91 91 95 95 91 90 96 100
80 19 341 346 19 36 39 74 50 51 62 56 59 35 50 63 42 18 347 358 333 282 123 39 108 71 97 85 81 12 26 5 348 354 353 355 356 13 48 79 90 99 102 104 105 103 102 105 106 99 97 93 92 90
44 343 336 328 47 49 46 38 75 68 70 45 71 45 58 44 15 23 353 346 327 27 22 57 32 53 38 53 64 25 18 15 9 4 7 12 25 42 69 91 98 104 103 102 104 105 104 104 102 100 103 102 97 92
56 37 24 69 88 81 70 48 46 85 63 77 60 42 46 51 38 21 10 9 34 30 66 48 53 42 32 20 347 350 2 358 27 40 43 42 55 73 86 92 99 102 104 108 106 103 98 101 102 104 104 104 97 97
106 39 34 59 36 82 77 58 62 83 73 86 81 54 57 21 13 26 27 23 35 55 50 44 35 12 338 334 326 350 30 59 111 101 76 68 71 75 81 88 91 98 93 91 87 89 94 93 86 92 95 98 102 103
39 7 12 45 57 61 78 78 68 80 122 93 120 79 71 54 45 35 30 6 53 31 57 23 4 358 359 357 360 8 23 5 22 50 111 104 86 92 92 93 93 90 94 99 96 90 87 89 98 94 90 90 95 101
5 349 59 34 79 73 78 34 91 119 86 110 98 57 60 40 33 33 28 40 61 27 355 331 343 348 7 21 23 26 39 66 72 80 83 101 101 93 87 90 101 97 93 92 97 97 95 97 101 103 103 105 104 108
354 30 46 21 75 61 75 273 79 117 104 93 99 67 54 57 53 54 69 43 50 3 347 350 337 23 26 26 42 43 36 58 74 74 75 75 75 78 84 80 88 102 98 84 88 96 99 105 105 108 110 110 112 111
39 45 32 40 32 74 65 44 27 59 53 71 70 75 57 54 62 66 70 53 6 1 4 9 5 23 47 42 39 28 21 52 74 68 64 89 88 77 78 79 77 80 90 105 106 106 106 106 116 114 116 117 116 114
67 14 10 36 23 56 57 45 25 49 64 41 73 62 47 25 69 66 61 24 3 9 3 2 28 28 28 39 35 34 23 30 62 76 57 75 93 94 82 77 74 76 94 107 110 113 113 113 114 117 118 119 119 117
71 23 34 25 33 39 34 63 43 41 44 67 58 49 37 61 68 62 47 2 356 4 2 4 9 33 44 27 28 22 14 11 65 68 42 28 48 79 96 98 94 73 56 101 122 122 119 119 120 119 116 116 119 122
66 48 51 26 11 67 81 59 46 49 58 47 39 41 49 67 71 67 29 23 359 9 10 14 26 44 50 52 51 46 47 51 60 68 65 55 51 41 53 84 87 78 89 101 114 123 125 125 124 122 121 122 125 131
61 41 56 12 58 34 74 54 39 42 43 17 53 46 68 57 76 46 22 16 21 39 49 51 47 46 49 44 36 43 65 79 91 96 88 71 58 53 58 63 68 75 75 82 99 111 119 124 128 129 127 122 115 116
54 41 75 46 55 53 40 36 35 37 357 357 85 89 93 62 23 13 23 15 25 36 48 50 51 59 67 62 49 37 26 11 91 93 85 79 70 48 37 59 70 74 83 86 83 92 103 109 114 116 118 118 117 126
56 10 86 56 52 51 26 10 52 33 50 64 95 105 92 78 40 19 33 38 44 49 46 42 30 37 47 57 61 56 40 30 21 36 86 85 74 58 53 62 68 69 77 89 95 94 95 101 107 108 116 129 140 143
45 82 75 58 79 100 92 44 116 93 75 72 72 91 89 98 107 43 31 13 33 45 60 59 54 37 44 40 36 57 66 41 45 56 69 79 77 70 64 60 60 73 87 102 108 112 120 119 121 131 138 138 136 164
40 49 109 102 126 144 224 81 62 74 53 69 70 93 138 135 80 55 9 353 52 62 49 57 65 58 49 58 60 63 58 62 48 41 47 58 62 54 53 53 56 70 88 96 96 105 114 118 131 138 148 160 170 180
96 78 81 104 126 158 134 123 60 106 65 71 67 33 46 28 89 82 66 26 30 52 69 70 69 67 61 58 57 68 64 64 56 54 55 53 45 37 47 47 52 66 86 96 100 114 122 128 139 149 158 173 184 204